AirNav   Bose Proflight Series 2 Wireless viation Headset
 
 1237 users online  

N07 Lincoln Park Airport
Lincoln Park, New Jersey, USA

GOING TO LINCOLN PARK?


FAA INFORMATION EFFECTIVE 10 OCTOBER 2019

Location

FAA Identifier: N07
Lat/Long: 40-56-51.0880N 074-18-52.2050W
40-56.851467N 074-18.870083W
40.9475244,-74.3145014
(estimated)
Elevation: 181.7 ft. / 55.4 m (surveyed)
Variation: 13W (1995)
From city: 2 miles N of LINCOLN PARK, NJ
Time zone: UTC -4 (UTC -5 during Standard Time)
Zip code: 07035

Airport Operations

Airport use: Open to the public
Activation date: 01/1939
Control tower: no
ARTCC: NEW YORK CENTER
FSS: MILLVILLE FLIGHT SERVICE STATION
NOTAMs facility: MIV (NOTAM-D service available)
Attendance: MON-FRI 0900-DUSK, ALL SAT-SUN UNATT
Wind indicator: yes
Segmented circle: no
Lights: ACTVT HIRL RY 01/19 - CTAF.
Beacon: white-green (lighted land airport)
Operates sunset to sunrise.

Airport Communications

CTAF/UNICOM: 122.8
NEW YORK APPROACH: 127.6
NEW YORK DEPARTURE: 127.6
WX ASOS at CDW (5 nm S): 135.5 (973-575-4417)
WX AWOS-3 at MMU (10 nm SW): PHONE 973-290-0135
WX ASOS at TEB (13 nm SE): 132.025 (201-393-0855)
WX ASOS at EWR (17 nm SE): PHONE 973-621-2892

Nearby radio navigation aids

VOR radial/distance  VOR name  Freq  Var
SAXr136/12.4SPARTA VORTAC115.7011W
TEBr308/12.9TETERBORO VOR/DME108.4011W
LGAr308/22.5LA GUARDIA VOR/DME113.1012W
BWZr080/24.7BROADWAY VOR/DME114.2011W
STWr108/25.3STILLWATER VOR/DME109.6011W
CRIr327/27.7CANARSIE VOR/DME112.3011W
SBJr052/29.2SOLBERG VOR/DME112.9010W
HUOr167/30.4HUGUENOT VOR/DME116.1011W
JFKr319/31.1KENNEDY VOR/DME115.9012W
CMKr251/38.7CARMEL VOR/DME116.6012W
COLr001/38.8COLTS NECK VOR/DME115.4011W

 
NDB name  Hdg/Dist  Freq  Var  ID
TORBY328/11.921412WTE - .
CHATHAM036/13.525413WCAT -.-. .- -
STANWYCK211/36.926112WSKU ... -.- ..-

Airport Services

Fuel available: 100LL JET-A
Parking: hangars and tiedowns
Airframe service: MAJOR
Powerplant service: MAJOR
Bottled oxygen: LOW
Bulk oxygen: NONE

Runway Information

Runway 1/19

Dimensions: 2942 x 40 ft. / 897 x 12 m
Surface: asphalt, in good condition
Runway edge lights: high intensity
RUNWAY 1  RUNWAY 19
Latitude: 40-56.613167N40-57.096167N
Longitude: 074-18.844833W074-18.896167W
Elevation: 177.5 ft.181.0 ft.
Traffic pattern: leftleft
Runway heading: 008 magnetic, 355 true188 magnetic, 175 true
Displaced threshold: 840 ft.260 ft.
DSPLCD THLD LGTS LCTD 108 FT SHORT OF DSPLCD THLD MARKINGS.
Markings: nonprecision, in good conditionnonprecision, in good condition
Visual slope indicator: 2-light PAPI on left (4.00 degrees glide path)
Touchdown point: yes, no lightsyes, no lights
Obstructions: 50 ft. trees, 200 ft. from runway, 60 ft. right of centerline
+75 FT TREES 0-200 FT FROM RWY END 250 L - 250 R.
20 ft. stack, 260 ft. from runway, 155 ft. left of centerline, 3:1 slope to clear
+30 FT HGR 80 FT FROM RWY END 200 FT L.

Airport Ownership and Management from official FAA records

Ownership: Privately-owned
Owner: PETER DEROSA
425 BEAVER BROOK ROAD
LINCOLN PARK, NJ 07035
Phone 973-628-7166
Manager: PETER DEROSA
425 BEAVER BROOK ROAD
LINCOLN PARK, NJ 07035
Phone 973-628-7166

Airport Operational Statistics

Aircraft based on the field: 92
Single engine airplanes: 81
Multi engine airplanes: 5
Helicopters: 6
    
Aircraft operations: avg 87/day *
80% local general aviation
20% transient general aviation
* for 12-month period ending 31 March 2019

Additional Remarks

NARROW TAXILANES & TWYS CAUSED BY NSTD CLNCS.
DEER AND BIRDS INVOF RUNWAY.
GCO AVBL ON FREQ 121.725.
TOUCH AND GO LANDINGS PROHIBITED.
FOR CD CTC NEW YORK APCH AT 800-645-3206.
(CONTACT TITLE) FBO CTC (973) 633-0450.

Instrument Procedures

NOTE: All procedures below are presented as PDF files. If you need a reader for these files, you should download the free Adobe Reader.

NOT FOR NAVIGATION. Please procure official charts for flight.
FAA instrument procedures published for use from 10 October 2019 at 0901Z to 7 November 2019 at 0900Z.

 
IAPs - Instrument Approach Procedures
RNAV (GPS) RWY 01   download (153KB)
RNAV (GPS) RWY 19   download (153KB)
NOTE: Special Take-Off Minimums/Departure Procedures apply   download (150KB)

Other nearby airports with instrument procedures:

KCDW - Essex County Airport (5 nm S)
KMMU - Morristown Municipal Airport (10 nm SW)
4N1 - Greenwood Lake Airport (11 nm N)
KTEB - Teterboro Airport (13 nm SE)
KEWR - Newark Liberty International Airport (17 nm SE)
KJRA - West 30th St Heliport (18 nm SE)
12N - Aeroflex-Andover Airport (20 nm W)
6N5 - East 34th Street Heliport (20 nm SE)
 
Loc | Ops | Rwys | IFR | FBO | Links
Com | Nav | Svcs | Stats | Notes
Area around N07 (Lincoln Park Airport)
 
Road maps at: MapQuest Bing Google
 
Aerial photo
WARNING: Photo may not be current or correct
Aerial photo of N07 (Lincoln Park Airport)
Photo by Trey Buttriss pleasureandplane.com
Photo taken 24-Jul-2011
looking southeast.

Do you have a better or more recent aerial photo of Lincoln Park Airport that you would like to share? If so, please send us your photo.

 
Sectional chart

 
Airport distance calculator
Flying to Lincoln Park Airport? Find the distance to fly.

From to N07

Sunrise and sunset
Times for 22-Oct-2019
 Local
(UTC-4)
 Zulu
(UTC)
Morning civil twilight06:4910:49
Sunrise07:1711:17
Sunset18:0622:06
Evening civil twilight18:3422:34

Current date and time
Zulu (UTC)  22-Oct-2019 21:43:05
Local (UTC-4)  22-Oct-2019 17:43:05
 
METAR
KCDW 
4nm S 
222114Z VRB05KT 1SM -RA BR OVC006 16/16 A2989 RMK AO2 P0001 T01610156
KMMU 
11nm SW 
222045Z 14007KT 1 3/4SM -RA BR OVC004 15/15 A2989
KTEB 
13nm E 
222051Z VRB06KT 1 1/2SM -DZ BR OVC004 16/14 A2989 RMK AO2 SLP122 P0001 60001 T01560144 56024
KEWR 
17nm SE 
222122Z 10009G18KT 1SM R04R/5500VP6000FT -RA BR OVC004 16/15 A2989 RMK AO2 CIG 003V005 P0002 T01560150 $
KNYC 
19nm SE 
222051Z AUTO VRB03KT 5SM BR OVC005 16/14 A2993 RMK AO2 SLP125 T01560144 55022 $
K12N 
19nm W 
222054Z AUTO 00000KT 14/13 A2987 RMK AO1 SLP115 T01440133 56015
TAF
KTEB 
13nm E 
221931Z 2220/2324 09008KT 5SM -DZ OVC008 TEMPO 2220/2222 3SM -RA OVC005 FM230000 10010KT 4SM -RA BR OVC008 TEMPO 2301/2304 2SM BR OVC003 FM230400 16010KT 4SM -RA BR OVC006 FM230700 34008KT 4SM -RA BR OVC006 FM230900 30010KT 5SM BR BKN025 OVC035 FM231400 29014G20KT P6SM FEW250 FM232200 27014KT P6SM FEW250
KEWR 
17nm SE 
221931Z 2220/2324 10011KT P6SM -DZ OVC007 TEMPO 2220/2222 3SM -RA BR OVC007 FM230000 10010KT 5SM -RA BR OVC008 TEMPO 2301/2304 2SM BR OVC003 FM230400 16010KT 4SM -RA BR OVC006 FM230700 34008KT 4SM -RA BR OVC006 FM230900 30010KT 5SM BR BKN025 OVC035 FM231400 28014G20KT P6SM FEW250 FM232200 27014KT P6SM FEW250
NOTAMs
Click for the latest NOTAMs
NOTAMs are issued by the DoD/FAA and will open in a separate window not controlled by AirNav.

 

 
 

FBO, Fuel Providers, and Aircraft Ground Support

  
 Business Name 
 
 Contact 
 
 Services / Description 
 
Fuel Prices
 
Comments
  
Lincoln Park Aviation 973-633-0450
no information available

If you are affiliated with Lincoln Park Aviation and would like to show here your services, contact info, web link, logo, and more, click here
100LL
FS $5.89 
 Updated 22-Oct-2019
 
   1 read write
Lincoln Park Airport 973-628-7166
no information available

If you are affiliated with Lincoln Park Airport and would like to show here your services, contact info, web link, logo, and more, click here
100LL Jet A
PS --- $4.50 
SS $5.20 --- 
 Updated 26-Mar-2019
 
   1 read write
FS=Full service
PS=Pump service
SS=Self service
Update Fuel Prices
 

Where to Eat: Catering, Restaurants, Food shops

  
 Business Name 
 
 Contact 
 
 Services / Description 
 
Distance
 
Comments
  
Sunset Pub & Grill 973-694-8700
no information available

If you are affiliated with Sunset Pub & Grill and would like to show here your services, contact info, web link, logo, and more, click here
on airport  
   2 read write
 

Would you like to see your business listed on this page?

 If your business provides an interesting product or service to pilots, flight crews, aircraft, or users of the Lincoln Park Airport, you should consider listing it here.  To start the listing process, click on the button below
 
Add a business
 

Other Pages about Lincoln Park Airport

n07.org
 
Update a link
 
Copyright © AirNav, LLC. All rights reserved. Privacy Policy  Contact